| time (UTC) | temp F | wind direction | speed MPH | gust MPH | rain 1hr in | rain 24hr in | rain mn in | humidity % | barometer mb |
| 20260509113004 | 60 | 263 | 2.0 | 6.0 | 0.03 | 0.22 | 0.22 | 90 | 1011.8 |
| 20260509112503 | 60 | 232 | 1.0 | 7.0 | 0.03 | 0.22 | 0.22 | 90 | 1011.8 |
| 20260509112004 | 60 | 240 | 2.0 | 10.0 | 0.02 | 0.21 | 0.21 | 90 | 1012.0 |
| 20260509111503 | 60 | 240 | 4.0 | 10.0 | 0.02 | 0.21 | 0.21 | 90 | 1012.5 |
| 20260509111004 | 60 | 240 | 4.0 | 8.0 | 0.02 | 0.21 | 0.21 | 90 | 1012.8 |
| 20260509110505 | 60 | 239 | 3.0 | 8.0 | 0.02 | 0.21 | 0.21 | 90 | 1012.4 |
| 20260509110004 | 60 | 234 | 4.0 | 11.0 | 0.03 | 0.21 | 0.21 | 90 | 1012.3 |
| 20260509105504 | 60 | 254 | 4.0 | 11.0 | 0.02 | 0.20 | 0.20 | 90 | 1012.2 |
| 20260509105003 | 60 | 254 | 4.0 | 11.0 | 0.02 | 0.20 | 0.20 | 90 | 1012.1 |
| 20260509104508 | 60 | 244 | 6.0 | 11.0 | 0.01 | 0.19 | 0.19 | 90 | 1011.8 |
| 20260509104003 | 60 | 248 | 6.0 | 11.0 | 0.01 | 0.19 | 0.19 | 90 | 1012.3 |
| 20260509103502 | 60 | 261 | 5.0 | 11.0 | 0.01 | 0.19 | 0.19 | 90 | 1012.2 |
| 20260509103003 | 60 | 221 | 5.0 | 10.0 | 0.02 | 0.19 | 0.19 | 90 | 1012.3 |
| 20260509102502 | 60 | 231 | 7.0 | 10.0 | 0.02 | 0.19 | 0.19 | 90 | 1012.3 |
| 20260509102003 | 60 | 248 | 6.0 | 9.0 | 0.03 | 0.19 | 0.19 | 90 | 1012.3 |
| 20260509101510 | 60 | 254 | 6.0 | 9.0 | 0.05 | 0.19 | 0.19 | 90 | 1012.1 |
| 20260509101004 | 60 | 232 | 4.0 | 10.0 | 0.07 | 0.19 | 0.19 | 90 | 1011.9 |
| 20260509100503 | 60 | 259 | 5.0 | 10.0 | 0.09 | 0.19 | 0.19 | 90 | 1011.8 |
| 20260509100011 | 60 | 241 | 4.0 | 7.0 | 0.10 | 0.18 | 0.18 | 90 | 1011.5 |
| 20260509095503 | 59 | 238 | 2.0 | 5.0 | 0.11 | 0.18 | 0.18 | 90 | 1011.1 |
| 20260509095008 | 59 | 242 | 3.0 | 7.0 | 0.12 | 0.18 | 0.18 | 90 | 1011.2 |
| 20260509094510 | 59 | 236 | 1.0 | 7.0 | 0.15 | 0.18 | 0.18 | 90 | 1011.0 |
| 20260509094004 | 59 | 184 | 4.0 | 7.0 | 0.16 | 0.18 | 0.18 | 90 | 1010.9 |
| 20260509093507 | 59 | 217 | 1.0 | 7.0 | 0.17 | 0.18 | 0.18 | 90 | 1011.0 |
| 20260509093003 | 59 | 276 | 3.0 | 13.0 | 0.16 | 0.17 | 0.17 | 90 | 1011.1 |
| 20260509092503 | 58 | 223 | 5.0 | 13.0 | 0.17 | 0.17 | 0.17 | 89 | 1010.6 |
| 20260509092002 | 58 | 110 | 3.0 | 12.0 | 0.16 | 0.16 | 0.16 | 89 | 1010.8 |
| 20260509091507 | 58 | 187 | 6.0 | 11.0 | 0.14 | 0.14 | 0.14 | 89 | 1011.1 |
| 20260509091004 | 58 | 185 | 4.0 | 10.0 | 0.12 | 0.12 | 0.12 | 89 | 1011.8 |
| 20260509090504 | 59 | 146 | 1.0 | 4.0 | 0.10 | 0.10 | 0.10 | 89 | 1012.2 |
| 20260509090005 | 59 | 213 | 1.0 | 2.0 | 0.08 | 0.08 | 0.08 | 89 | 1012.4 |
| 20260509085503 | 59 | 213 | 0.0 | 2.0 | 0.07 | 0.07 | 0.07 | 89 | 1012.5 |
| 20260509085003 | 59 | 213 | 1.0 | 2.0 | 0.06 | 0.06 | 0.06 | 89 | 1012.7 |
| 20260509084515 | 59 | 267 | 1.0 | 3.0 | 0.03 | 0.03 | 0.03 | 90 | 1012.8 |
| 20260509084008 | 59 | 267 | 0.0 | 3.0 | 0.02 | 0.02 | 0.02 | 90 | 1012.8 |
| 20260509083503 | 59 | 274 | 0.0 | 8.0 | 0.01 | 0.01 | 0.01 | 90 | 1012.9 |
| 20260509083031 | 59 | 295 | 1.0 | 8.0 | 0.01 | 0.01 | 0.01 | 90 | 1013.0 |
| 20260509082503 | 59 | 249 | 3.0 | 8.0 | 0.00 | 0.00 | 0.00 | 90 | 1013.2 |
| 20260509082007 | 58 | 254 | 5.0 | 8.0 | 0.00 | 0.00 | 0.00 | 90 | 1013.3 |
| 20260509081517 | 58 | 288 | 3.0 | 6.0 | 0.00 | 0.00 | 0.00 | 90 | 1013.2 |
| 20260509081005 | 58 | 274 | 4.0 | 6.0 | 0.00 | 0.00 | 0.00 | 90 | 1013.1 |
| 20260509080507 | 58 | 277 | 2.0 | 5.0 | 0.00 | 0.00 | 0.00 | 90 | 1013.0 |
| 20260509080008 | 58 | 252 | 2.0 | 4.0 | 0.00 | 0.00 | 0.00 | 90 | 1012.9 |
| 20260509075502 | 57 | 284 | 2.0 | 3.0 | 0.00 | 0.00 | 0.00 | 90 | 1012.8 |
| 20260509075004 | 56 | 263 | 2.0 | 3.0 | 0.00 | 0.00 | 0.00 | 90 | 1012.7 |
| 20260509074513 | 56 | 256 | 2.0 | 3.0 | 0.00 | 0.00 | 0.00 | 90 | 1012.5 |
| 20260509074003 | 56 | 263 | 0.0 | 0.0 | 0.00 | 0.00 | 0.00 | 90 | 1012.2 |
| 20260509073504 | 56 | 263 | 0.0 | 0.0 | 0.00 | 0.00 | 0.00 | 90 | 1012.1 |
| 20260509073010 | 55 | 232 | 0.0 | 0.0 | 0.00 | 0.00 | 0.00 | 89 | 1011.9 |
| 20260509072509 | 55 | 232 | 0.0 | 0.0 | 0.00 | 0.00 | 0.00 | 89 | 1011.6 |
| 20260509072005 | 54 | 232 | 0.0 | 0.0 | 0.00 | 0.00 | 0.00 | 89 | 1011.7 |
| 20260509071508 | 55 | 232 | 0.0 | 0.0 | 0.00 | 0.00 | 0.00 | 89 | 1011.6 |
| 20260509071005 | 55 | 232 | 0.0 | 0.0 | 0.00 | 0.00 | 0.00 | 88 | 1011.7 |
| 20260509070505 | 55 | 232 | 0.0 | 0.0 | 0.00 | 0.00 | 0.00 | 88 | 1011.8 |
| 20260509070025 | 55 | 232 | 0.0 | 0.0 | 0.00 | 0.00 | 0.00 | 88 | 1011.8 |
| 20260509065502 | 55 | 232 | 0.0 | 0.0 | 0.00 | 0.00 | 0.00 | 88 | 1012.1 |
| 20260509065003 | 55 | 232 | 0.0 | 0.0 | 0.00 | 0.00 | 0.00 | 89 | 1012.2 |
| 20260509064508 | 55 | 232 | 0.0 | 0.0 | 0.00 | 0.00 | 0.00 | 88 | 1012.4 |
| 20260509064004 | 55 | 232 | 0.0 | 0.0 | 0.00 | 0.00 | 0.00 | 88 | 1012.4 |
| 20260509063505 | 55 | 232 | 0.0 | 0.0 | 0.00 | 0.00 | 0.00 | 88 | 1012.3 |
| 20260509063020 | 55 | 232 | 0.0 | 0.0 | 0.00 | 0.00 | 0.00 | 88 | 1012.3 |
| 20260509062504 | 55 | 232 | 0.0 | 0.0 | 0.00 | 0.00 | 0.00 | 89 | 1012.3 |
| 20260509062010 | 55 | 231 | 0.0 | 0.0 | 0.00 | 0.00 | 0.00 | 89 | 1012.3 |
| 20260509061521 | 55 | 232 | 0.0 | 0.0 | 0.00 | 0.00 | 0.00 | 88 | 1012.0 |
| 20260509061004 | 55 | 232 | 0.0 | 0.0 | 0.00 | 0.00 | 0.00 | 88 | 1012.3 |
| 20260509060507 | 55 | 232 | 0.0 | 0.0 | 0.00 | 0.00 | 0.00 | 88 | 1012.3 |
| 20260509060017 | 55 | 231 | 0.0 | 0.0 | 0.00 | 0.00 | 0.00 | 88 | 1012.5 |
| 20260509055505 | 56 | 231 | 0.0 | 0.0 | 0.00 | 0.00 | 0.00 | 88 | 1012.4 |
| 20260509055007 | 56 | 232 | 0.0 | 2.0 | 0.00 | 0.00 | 0.00 | 88 | 1012.5 |
| 20260509054514 | 56 | 232 | 0.0 | 2.0 | 0.00 | 0.00 | 0.00 | 88 | 1012.7 |
| 20260509054002 | 56 | 231 | 0.0 | 1.0 | 0.00 | 0.00 | 0.00 | 88 | 1013.0 |
| 20260509053503 | 56 | 232 | 0.0 | 2.0 | 0.00 | 0.00 | 0.00 | 88 | 1013.0 |
| 20260509053013 | 56 | 231 | 1.0 | 2.0 | 0.00 | 0.00 | 0.00 | 88 | 1013.0 |
| 20260509052503 | 56 | 272 | 0.0 | 2.0 | 0.00 | 0.00 | 0.00 | 89 | 1013.0 |
| 20260509052004 | 56 | 272 | 0.0 | 2.0 | 0.00 | 0.00 | 0.00 | 88 | 1013.0 |
| 20260509051503 | 56 | 272 | 1.0 | 2.0 | 0.00 | 0.00 | 0.00 | 89 | 1012.9 |
| 20260509051002 | 56 | 137 | 0.0 | 4.0 | 0.00 | 0.00 | 0.00 | 88 | 1012.7 |
| 20260509050502 | 56 | 124 | 0.0 | 4.0 | 0.00 | 0.00 | 0.00 | 88 | 1012.5 |
| 20260509050003 | 56 | 151 | 1.0 | 4.0 | 0.00 | 0.00 | 0.00 | 88 | 1012.5 |
| 20260509045503 | 56 | 195 | 1.0 | 4.0 | 0.00 | 0.00 | 0.00 | 88 | 1012.7 |
| 20260509045004 | 56 | 174 | 1.0 | 5.0 | 0.00 | 0.00 | 0.00 | 88 | 1012.6 |
| 20260509044503 | 56 | 151 | 2.0 | 5.0 | 0.00 | 0.00 | 0.00 | 87 | 1012.6 |
| 20260509044003 | 56 | 182 | 1.0 | 2.0 | 0.00 | 0.00 | 0.00 | 87 | 1012.9 |
| 20260509043504 | 56 | 173 | 0.0 | 0.0 | 0.00 | 0.00 | 0.00 | 87 | 1012.9 |
| 20260509043002 | 56 | 173 | 0.0 | 0.0 | 0.00 | 0.00 | 0.00 | 87 | 1012.9 |
| 20260509042504 | 56 | 175 | 0.0 | 0.0 | 0.00 | 0.00 | 0.00 | 87 | 1012.9 |
| 20260509042008 | 56 | 175 | 0.0 | 0.0 | 0.00 | 0.00 | 0.00 | 87 | 1012.9 |
| 20260509041504 | 56 | 169 | 0.0 | 0.0 | 0.00 | 0.00 | 0.00 | 87 | 1012.9 |
| 20260509041004 | 56 | 159 | 0.0 | 0.0 | 0.00 | 0.00 | 0.00 | 87 | 1012.9 |
| 20260509040502 | 56 | 173 | 0.0 | 1.0 | 0.00 | 0.00 | 0.00 | 87 | 1012.9 |
| 20260509040004 | 56 | 145 | 0.0 | 3.0 | 0.00 | 0.00 | 0.00 | 87 | 1012.7 |
| 20260509035504 | 56 | 144 | 0.0 | 3.0 | 0.00 | 0.00 | 0.00 | 87 | 1012.5 |
| 20260509035004 | 56 | 136 | 1.0 | 2.0 | 0.00 | 0.00 | 0.00 | 87 | 1012.7 |
| 20260509034504 | 56 | 153 | 1.0 | 2.0 | 0.00 | 0.00 | 0.00 | 87 | 1012.9 |
| 20260509034003 | 56 | 165 | 0.0 | 3.0 | 0.00 | 0.00 | 0.00 | 87 | 1012.9 |
| 20260509033503 | 56 | 179 | 1.0 | 3.0 | 0.00 | 0.00 | 0.00 | 87 | 1012.8 |
| 20260509033006 | 57 | 182 | 0.0 | 3.0 | 0.00 | 0.00 | 0.00 | 87 | 1013.0 |
| 20260509032507 | 57 | 147 | 1.0 | 5.0 | 0.00 | 0.00 | 0.00 | 86 | 1013.0 |
| 20260509032002 | 57 | 158 | 2.0 | 5.0 | 0.00 | 0.00 | 0.00 | 86 | 1013.1 |
| 20260509031511 | 57 | 134 | 1.0 | 4.0 | 0.00 | 0.00 | 0.00 | 86 | 1013.3 |
| 20260509031004 | 57 | 157 | 1.0 | 2.0 | 0.00 | 0.00 | 0.00 | 86 | 1013.2 |
| 20260509030511 | 57 | 140 | 0.0 | 3.0 | 0.00 | 0.00 | 0.00 | 86 | 1013.2 |
| 20260509030012 | 57 | 124 | 0.0 | 3.0 | 0.00 | 0.00 | 0.00 | 86 | 1013.1 |
| 20260509025503 | 57 | 136 | 2.0 | 3.0 | 0.00 | 0.00 | 0.00 | 86 | 1012.9 |
| 20260509025002 | 57 | 139 | 1.0 | 2.0 | 0.00 | 0.00 | 0.00 | 86 | 1013.2 |
| 20260509024507 | 57 | 139 | 1.0 | 3.0 | 0.00 | 0.00 | 0.00 | 86 | 1013.1 |
| 20260509024003 | 57 | 123 | 2.0 | 3.0 | 0.00 | 0.00 | 0.00 | 86 | 1013.0 |
| 20260509023504 | 57 | 123 | 2.0 | 3.0 | 0.00 | 0.00 | 0.00 | 86 | 1012.9 |
| 20260509023003 | 57 | 150 | 1.0 | 3.0 | 0.00 | 0.00 | 0.00 | 86 | 1012.9 |
| 20260509022504 | 57 | 116 | 1.0 | 3.0 | 0.00 | 0.00 | 0.00 | 85 | 1012.7 |
| 20260509022004 | 57 | 128 | 1.0 | 3.0 | 0.00 | 0.00 | 0.00 | 85 | 1012.8 |
| 20260509021505 | 57 | 139 | 1.0 | 3.0 | 0.00 | 0.00 | 0.00 | 85 | 1012.7 |
| 20260509021004 | 57 | 108 | 2.0 | 3.0 | 0.00 | 0.00 | 0.00 | 85 | 1012.7 |
| 20260509020503 | 58 | 109 | 2.0 | 3.0 | 0.00 | 0.00 | 0.00 | 85 | 1012.7 |
| 20260509020010 | 58 | 110 | 1.0 | 2.0 | 0.00 | 0.00 | 0.00 | 84 | 1012.8 |
| 20260509015504 | 58 | 121 | 1.0 | 2.0 | 0.00 | 0.00 | 0.00 | 84 | 1012.7 |
| 20260509015006 | 58 | 121 | 1.0 | 3.0 | 0.00 | 0.00 | 0.00 | 85 | 1012.8 |
| 20260509014518 | 58 | 125 | 1.0 | 3.0 | 0.00 | 0.00 | 0.00 | 85 | 1012.7 |
| 20260509014008 | 58 | 108 | 2.0 | 6.0 | 0.00 | 0.00 | 0.00 | 85 | 1012.7 |
| 20260509013503 | 58 | 140 | 2.0 | 6.0 | 0.00 | 0.00 | 0.00 | 85 | 1012.8 |
| 20260509013005 | 58 | 142 | 3.0 | 4.0 | 0.00 | 0.00 | 0.00 | 85 | 1012.8 |
| 20260509012507 | 57 | 128 | 2.0 | 5.0 | 0.00 | 0.00 | 0.00 | 85 | 1012.8 |
| 20260509012007 | 57 | 156 | 2.0 | 5.0 | 0.00 | 0.00 | 0.00 | 85 | 1013.0 |
| 20260509011504 | 58 | 161 | 2.0 | 4.0 | 0.00 | 0.00 | 0.00 | 85 | 1013.1 |
| 20260509011004 | 58 | 131 | 2.0 | 4.0 | 0.00 | 0.00 | 0.00 | 85 | 1012.9 |
| 20260509010506 | 58 | 151 | 2.0 | 4.0 | 0.00 | 0.00 | 0.00 | 85 | 1013.1 |
| 20260509010010 | 58 | 165 | 2.0 | 3.0 | 0.00 | 0.00 | 0.00 | 85 | 1013.1 |
| 20260509005504 | 58 | 111 | 2.0 | 3.0 | 0.00 | 0.00 | 0.00 | 85 | 1012.9 |
| 20260509005006 | 58 | 150 | 1.0 | 3.0 | 0.00 | 0.00 | 0.00 | 85 | 1013.3 |
| 20260509004512 | 58 | 160 | 0.0 | 4.0 | 0.00 | 0.00 | 0.00 | 85 | 1013.6 |
| 20260509004008 | 58 | 143 | 1.0 | 4.0 | 0.00 | 0.00 | 0.00 | 85 | 1013.4 |
| 20260509003508 | 59 | 178 | 2.0 | 3.0 | 0.00 | 0.00 | 0.00 | 85 | 1013.4 |
| 20260509003010 | 59 | 135 | 1.0 | 2.0 | 0.00 | 0.00 | 0.00 | 84 | 1013.4 |
| 20260509002509 | 59 | 135 | 0.0 | 3.0 | 0.00 | 0.00 | 0.00 | 84 | 1013.5 |
| 20260509002005 | 59 | 135 | 1.0 | 3.0 | 0.00 | 0.00 | 0.00 | 84 | 1013.4 |
| 20260509001511 | 59 | 116 | 1.0 | 3.0 | 0.00 | 0.00 | 0.00 | 84 | 1013.3 |
| 20260509001004 | 59 | 116 | 2.0 | 3.0 | 0.00 | 0.00 | 0.00 | 83 | 1013.3 |
| 20260509000504 | 59 | 116 | 2.0 | 2.0 | 0.00 | 0.00 | 0.00 | 83 | 1013.6 |
| 20260509000007 | 60 | 116 | 0.0 | 3.0 | 0.00 | 0.00 | 0.00 | 82 | 1013.5 |
| 20260508235507 | 60 | 116 | 2.0 | 3.0 | 0.00 | 0.00 | 0.00 | 82 | 1013.4 |
| 20260508235008 | 60 | 116 | 1.0 | 2.0 | 0.00 | 0.00 | 0.00 | 81 | 1014.0 |
| 20260508234515 | 60 | 116 | 1.0 | 2.0 | 0.00 | 0.00 | 0.00 | 81 | 1013.9 |
| 20260508234005 | 61 | 116 | 1.0 | 2.0 | 0.00 | 0.00 | 0.00 | 81 | 1013.6 |
| 20260508233504 | 61 | 136 | 1.0 | 3.0 | 0.00 | 0.00 | 0.00 | 81 | 1013.7 |
| 20260508233020 | 61 | 171 | 1.0 | 3.0 | 0.00 | 0.00 | 0.00 | 81 | 1014.1 |
| 20260508232503 | 61 | 126 | 1.0 | 2.0 | 0.00 | 0.00 | 0.00 | 80 | 1014.0 |
| 20260508232009 | 61 | 126 | 0.0 | 2.0 | 0.00 | 0.00 | 0.00 | 80 | 1014.0 |
| 20260508231516 | 61 | 126 | 2.0 | 3.0 | 0.00 | 0.00 | 0.00 | 80 | 1013.9 |
| 20260508231004 | 62 | 126 | 2.0 | 3.0 | 0.00 | 0.00 | 0.00 | 79 | 1014.1 |
| 20260508230507 | 62 | 126 | 2.0 | 3.0 | 0.00 | 0.00 | 0.00 | 79 | 1013.9 |
| 20260508230007 | 62 | 126 | 1.0 | 2.0 | 0.00 | 0.00 | 0.00 | 79 | 1014.2 |
| 20260508225504 | 62 | 196 | 1.0 | 5.0 | 0.00 | 0.00 | 0.00 | 78 | 1014.2 |
| 20260508225004 | 62 | 163 | 2.0 | 4.0 | 0.00 | 0.00 | 0.00 | 77 | 1014.3 |
| 20260508224511 | 62 | 144 | 1.0 | 3.0 | 0.00 | 0.00 | 0.00 | 77 | 1014.0 |
| 20260508224003 | 62 | 159 | 1.0 | 3.0 | 0.00 | 0.00 | 0.00 | 78 | 1013.9 |
| 20260508223507 | 62 | 147 | 2.0 | 2.0 | 0.00 | 0.00 | 0.00 | 78 | 1013.7 |
| 20260508223015 | 62 | 168 | 0.0 | 2.0 | 0.00 | 0.00 | 0.00 | 76 | 1014.2 |
| 20260508222508 | 62 | 168 | 0.0 | 4.0 | 0.00 | 0.00 | 0.00 | 76 | 1014.3 |
| 20260508222012 | 62 | 168 | 1.0 | 4.0 | 0.00 | 0.00 | 0.00 | 75 | 1014.1 |
| 20260508221518 | 62 | 158 | 1.0 | 5.0 | 0.00 | 0.00 | 0.00 | 75 | 1014.1 |
| 20260508221007 | 62 | 189 | 1.0 | 6.0 | 0.00 | 0.00 | 0.00 | 74 | 1014.3 |
| 20260508220504 | 63 | 191 | 2.0 | 6.0 | 0.00 | 0.00 | 0.00 | 75 | 1014.4 |
| 20260508220024 | 63 | 213 | 0.0 | 5.0 | 0.00 | 0.00 | 0.00 | 76 | 1014.3 |
| 20260508215511 | 63 | 165 | 1.0 | 5.0 | 0.00 | 0.00 | 0.00 | 77 | 1013.9 |
| 20260508215005 | 63 | 172 | 2.0 | 4.0 | 0.00 | 0.00 | 0.00 | 76 | 1014.1 |
| 20260508214508 | 62 | 177 | 0.0 | 4.0 | 0.00 | 0.00 | 0.00 | 75 | 1014.4 |
| 20260508214003 | 62 | 164 | 1.0 | 4.0 | 0.00 | 0.00 | 0.00 | 75 | 1014.3 |
| 20260508213506 | 62 | 173 | 1.0 | 3.0 | 0.00 | 0.00 | 0.00 | 74 | 1014.3 |
| 20260508213019 | 63 | 163 | 1.0 | 2.0 | 0.00 | 0.00 | 0.00 | 76 | 1014.3 |
| 20260508212505 | 63 | 163 | 1.0 | 3.0 | 0.00 | 0.00 | 0.00 | 74 | 1014.7 |
| 20260508212009 | 63 | 159 | 0.0 | 3.0 | 0.00 | 0.00 | 0.00 | 74 | 1014.9 |
| 20260508211516 | 63 | 148 | 1.0 | 4.0 | 0.00 | 0.00 | 0.00 | 73 | 1014.8 |
| 20260508211003 | 63 | 154 | 2.0 | 4.0 | 0.00 | 0.00 | 0.00 | 73 | 1014.8 |
| 20260508210510 | 63 | 144 | 0.0 | 2.0 | 0.00 | 0.00 | 0.00 | 73 | 1014.5 |
| 20260508210019 | 63 | 186 | 1.0 | 3.0 | 0.00 | 0.00 | 0.00 | 72 | 1014.8 |
| 20260508205508 | 63 | 196 | 1.0 | 5.0 | 0.00 | 0.00 | 0.00 | 72 | 1014.9 |
| 20260508205006 | 63 | 145 | 0.0 | 6.0 | 0.00 | 0.00 | 0.00 | 72 | 1014.7 |
| 20260508204512 | 63 | 180 | 1.0 | 6.0 | 0.00 | 0.00 | 0.00 | 70 | 1014.6 |
| 20260508204007 | 63 | 194 | 1.0 | 6.0 | 0.00 | 0.00 | 0.00 | 71 | 1014.8 |
| 20260508203509 | 63 | 179 | 2.0 | 6.0 | 0.00 | 0.00 | 0.00 | 70 | 1014.5 |
| 20260508203010 | 63 | 136 | 3.0 | 5.0 | 0.00 | 0.00 | 0.00 | 69 | 1014.5 |
| 20260508202506 | 63 | 158 | 1.0 | 5.0 | 0.00 | 0.00 | 0.00 | 69 | 1014.7 |
| 20260508202002 | 64 | 180 | 2.0 | 5.0 | 0.00 | 0.00 | 0.00 | 68 | 1014.9 |
| 20260508201459 | 64 | 156 | 1.0 | 7.0 | 0.00 | 0.00 | 0.00 | 68 | 1014.9 |
| 20260508201002 | 64 | 168 | 3.0 | 7.0 | 0.00 | 0.00 | 0.00 | 69 | 1014.7 |
| 20260508200502 | 64 | 167 | 3.0 | 8.0 | 0.00 | 0.00 | 0.00 | 67 | 1014.8 |
| 20260508200009 | 64 | 160 | 4.0 | 8.0 | 0.00 | 0.00 | 0.00 | 67 | 1015.0 |
| 20260508195506 | 64 | 166 | 3.0 | 6.0 | 0.00 | 0.00 | 0.00 | 68 | 1014.8 |
| 20260508194959 | 64 | 171 | 3.0 | 7.0 | 0.00 | 0.00 | 0.00 | 68 | 1014.9 |
| 20260508194503 | 64 | 111 | 2.0 | 8.0 | 0.00 | 0.00 | 0.00 | 69 | 1014.8 |
| 20260508193958 | 64 | 146 | 3.0 | 8.0 | 0.00 | 0.00 | 0.00 | 66 | 1015.0 |
| 20260508193503 | 64 | 142 | 2.0 | 5.0 | 0.00 | 0.00 | 0.00 | 69 | 1015.3 |
| 20260508193004 | 64 | 136 | 0.0 | 2.0 | 0.00 | 0.00 | 0.00 | 68 | 1015.3 |
| 20260508192459 | 64 | 85 | 0.0 | 4.0 | 0.00 | 0.00 | 0.00 | 68 | 1015.2 |
| 20260508191958 | 64 | 98 | 1.0 | 8.0 | 0.00 | 0.00 | 0.00 | 67 | 1015.1 |
| 20260508191503 | 64 | 137 | 3.0 | 10.0 | 0.00 | 0.00 | 0.00 | 67 | 1014.8 |
| 20260508190958 | 64 | 163 | 5.0 | 10.0 | 0.00 | 0.00 | 0.00 | 67 | 1014.6 |
| 20260508190503 | 65 | 143 | 6.0 | 9.0 | 0.00 | 0.00 | 0.00 | 65 | 1014.4 |
| 20260508190004 | 65 | 148 | 5.0 | 9.0 | 0.00 | 0.00 | 0.00 | 65 | 1014.5 |
| 20260508185502 | 66 | 116 | 5.0 | 8.0 | 0.00 | 0.00 | 0.00 | 66 | 1014.7 |
| 20260508185004 | 66 | 147 | 4.0 | 7.0 | 0.00 | 0.00 | 0.00 | 64 | 1015.0 |
| 20260508184503 | 66 | 129 | 2.0 | 9.0 | 0.00 | 0.00 | 0.00 | 64 | 1015.5 |
| 20260508184003 | 66 | 162 | 2.0 | 9.0 | 0.00 | 0.00 | 0.00 | 63 | 1015.5 |
| 20260508183510 | 66 | 128 | 5.0 | 9.0 | 0.00 | 0.00 | 0.00 | 62 | 1015.4 |
| 20260508183002 | 67 | 113 | 6.0 | 9.0 | 0.00 | 0.00 | 0.00 | 60 | 1015.8 |
| 20260508182505 | 67 | 95 | 4.0 | 8.0 | 0.00 | 0.00 | 0.00 | 62 | 1016.0 |
| 20260508182003 | 67 | 179 | 3.0 | 8.0 | 0.00 | 0.00 | 0.00 | 62 | 1016.1 |
| 20260508181513 | 66 | 149 | 1.0 | 7.0 | 0.00 | 0.00 | 0.00 | 64 | 1015.9 |
| 20260508180959 | 65 | 98 | 3.0 | 7.0 | 0.00 | 0.00 | 0.00 | 62 | 1015.9 |
| 20260508180459 | 65 | 82 | 4.0 | 7.0 | 0.00 | 0.00 | 0.00 | 62 | 1015.9 |
| 20260508180004 | 65 | 100 | 4.0 | 8.0 | 0.00 | 0.00 | 0.00 | 63 | 1016.0 |
| 20260508175504 | 65 | 126 | 2.0 | 8.0 | 0.00 | 0.00 | 0.00 | 63 | 1016.2 |
| 20260508175001 | 65 | 141 | 5.0 | 9.0 | 0.00 | 0.00 | 0.00 | 62 | 1016.1 |
| 20260508174505 | 65 | 117 | 5.0 | 9.0 | 0.00 | 0.00 | 0.00 | 60 | 1016.0 |
| 20260508174002 | 66 | 140 | 3.0 | 9.0 | 0.00 | 0.00 | 0.00 | 61 | 1016.0 |
| 20260508173505 | 66 | 107 | 6.0 | 8.0 | 0.00 | 0.00 | 0.00 | 61 | 1016.2 |
| 20260508173007 | 66 | 132 | 3.0 | 7.0 | 0.00 | 0.00 | 0.00 | 61 | 1016.3 |
| 20260508172504 | 66 | 159 | 2.0 | 7.0 | 0.00 | 0.00 | 0.00 | 61 | 1016.6 |
| 20260508172007 | 65 | 169 | 3.0 | 9.0 | 0.00 | 0.00 | 0.00 | 65 | 1016.7 |
| 20260508171509 | 65 | 88 | 6.0 | 9.0 | 0.00 | 0.00 | 0.00 | 61 | 1016.7 |
| 20260508171002 | 65 | 111 | 4.0 | 9.0 | 0.00 | 0.00 | 0.00 | 65 | 1016.7 |
| 20260508170506 | 65 | 128 | 3.0 | 9.0 | 0.00 | 0.00 | 0.00 | 65 | 1016.8 |
| 20260508170007 | 64 | 93 | 4.0 | 9.0 | 0.00 | 0.00 | 0.00 | 62 | 1016.7 |
| 20260508165502 | 64 | 119 | 3.0 | 8.0 | 0.00 | 0.00 | 0.00 | 68 | 1017.0 |
| 20260508165005 | 64 | 76 | 2.0 | 8.0 | 0.00 | 0.00 | 0.00 | 65 | 1017.1 |
| 20260508164504 | 64 | 104 | 5.0 | 7.0 | 0.00 | 0.00 | 0.00 | 65 | 1016.7 |
| 20260508164003 | 64 | 61 | 2.0 | 4.0 | 0.00 | 0.00 | 0.00 | 68 | 1016.9 |
| 20260508163502 | 63 | 90 | 1.0 | 4.0 | 0.00 | 0.00 | 0.00 | 68 | 1016.9 |
| 20260508163003 | 63 | 62 | 2.0 | 4.0 | 0.00 | 0.00 | 0.00 | 67 | 1017.1 |
| 20260508162504 | 63 | 54 | 0.0 | 8.0 | 0.00 | 0.00 | 0.00 | 69 | 1017.1 |
| 20260508162002 | 63 | 107 | 2.0 | 8.0 | 0.00 | 0.00 | 0.00 | 66 | 1017.1 |
| 20260508161506 | 63 | 124 | 2.0 | 6.0 | 0.00 | 0.00 | 0.00 | 65 | 1017.2 |
| 20260508161004 | 63 | 152 | 1.0 | 6.0 | 0.00 | 0.00 | 0.00 | 66 | 1017.3 |
| 20260508160502 | 63 | 117 | 1.0 | 8.0 | 0.00 | 0.00 | 0.00 | 67 | 1017.1 |
| 20260508160019 | 63 | 110 | 3.0 | 10.0 | 0.00 | 0.00 | 0.00 | 66 | 1017.0 |
| 20260508155507 | 63 | 97 | 6.0 | 10.0 | 0.00 | 0.00 | 0.00 | 64 | 1017.2 |
| 20260508155002 | 63 | 67 | 7.0 | 10.0 | 0.00 | 0.00 | 0.00 | 62 | 1017.2 |
| 20260508154508 | 63 | 96 | 4.0 | 8.0 | 0.00 | 0.00 | 0.00 | 66 | 1017.4 |
| 20260508154006 | 63 | 121 | 4.0 | 8.0 | 0.00 | 0.00 | 0.00 | 65 | 1017.6 |
| 20260508153503 | 63 | 138 | 4.0 | 9.0 | 0.00 | 0.00 | 0.00 | 64 | 1017.5 |
| 20260508153003 | 63 | 119 | 3.0 | 9.0 | 0.00 | 0.00 | 0.00 | 66 | 1017.7 |
| 20260508152506 | 63 | 123 | 5.0 | 10.0 | 0.00 | 0.00 | 0.00 | 66 | 1017.6 |
| 20260508152006 | 62 | 166 | 5.0 | 12.0 | 0.00 | 0.00 | 0.00 | 66 | 1017.4 |
| 20260508151505 | 62 | 118 | 5.0 | 12.0 | 0.00 | 0.00 | 0.00 | 66 | 1017.4 |
| 20260508151004 | 62 | 113 | 4.0 | 9.0 | 0.00 | 0.00 | 0.00 | 67 | 1017.3 |
| 20260508150509 | 62 | 85 | 6.0 | 12.0 | 0.00 | 0.00 | 0.00 | 67 | 1017.1 |
| 20260508150018 | 62 | 75 | 5.0 | 12.0 | 0.00 | 0.00 | 0.00 | 67 | 1017.1 |
| 20260508145507 | 62 | 79 | 5.0 | 13.0 | 0.00 | 0.00 | 0.00 | 66 | 1017.4 |
| 20260508145006 | 63 | 140 | 8.0 | 13.0 | 0.00 | 0.00 | 0.00 | 64 | 1017.4 |
| 20260508144505 | 63 | 134 | 5.0 | 12.0 | 0.00 | 0.00 | 0.00 | 65 | 1017.6 |
| 20260508144007 | 64 | 37 | 6.0 | 12.0 | 0.00 | 0.00 | 0.00 | 64 | 1017.8 |
| 20260508143503 | 64 | 117 | 4.0 | 10.0 | 0.00 | 0.00 | 0.00 | 69 | 1017.7 |
| 20260508143017 | 63 | 137 | 4.0 | 12.0 | 0.00 | 0.00 | 0.00 | 69 | 1017.8 |
| 20260508142505 | 62 | 122 | 5.0 | 12.0 | 0.00 | 0.00 | 0.00 | 71 | 1017.7 |
| 20260508142003 | 62 | 119 | 6.0 | 12.0 | 0.00 | 0.00 | 0.00 | 69 | 1017.6 |
| 20260508141506 | 61 | 68 | 8.0 | 12.0 | 0.00 | 0.00 | 0.00 | 70 | 1017.6 |
| 20260508141005 | 61 | 108 | 5.0 | 11.0 | 0.00 | 0.00 | 0.00 | 71 | 1017.6 |
| 20260508140502 | 61 | 97 | 6.0 | 11.0 | 0.00 | 0.00 | 0.00 | 71 | 1017.7 |
| 20260508140018 | 60 | 105 | 7.0 | 12.0 | 0.00 | 0.00 | 0.00 | 71 | 1017.8 |
| 20260508135504 | 60 | 107 | 7.0 | 12.0 | 0.00 | 0.00 | 0.00 | 71 | 1017.9 |
| 20260508135005 | 60 | 130 | 5.0 | 12.0 | 0.00 | 0.00 | 0.00 | 74 | 1018.1 |
| 20260508134511 | 60 | 114 | 6.0 | 12.0 | 0.00 | 0.00 | 0.00 | 74 | 1018.2 |
| 20260508134004 | 60 | 94 | 5.0 | 9.0 | 0.00 | 0.01 | 0.00 | 76 | 1018.3 |
| 20260508133507 | 60 | 102 | 5.0 | 8.0 | 0.00 | 0.01 | 0.00 | 76 | 1018.5 |
| 20260508133009 | 60 | 90 | 1.0 | 5.0 | 0.00 | 0.01 | 0.00 | 80 | 1018.5 |
| 20260508132503 | 59 | 97 | 3.0 | 6.0 | 0.00 | 0.01 | 0.00 | 79 | 1018.4 |
| 20260508132008 | 59 | 61 | 2.0 | 6.0 | 0.00 | 0.01 | 0.00 | 80 | 1018.3 |
| 20260508131506 | 58 | 72 | 3.0 | 5.0 | 0.00 | 0.01 | 0.00 | 80 | 1018.3 |
| 20260508131008 | 58 | 84 | 3.0 | 5.0 | 0.00 | 0.01 | 0.00 | 81 | 1018.3 |
| 20260508130505 | 58 | 74 | 2.0 | 5.0 | 0.00 | 0.01 | 0.00 | 81 | 1018.2 |
| 20260508130007 | 58 | 96 | 1.0 | 3.0 | 0.00 | 0.01 | 0.00 | 82 | 1018.2 |
| 20260508125504 | 57 | 113 | 1.0 | 3.0 | 0.00 | 0.01 | 0.00 | 82 | 1018.1 |
| 20260508125004 | 57 | 94 | 0.0 | 4.0 | 0.00 | 0.01 | 0.00 | 81 | 1018.1 |
| 20260508124505 | 57 | 90 | 2.0 | 5.0 | 0.00 | 0.01 | 0.00 | 81 | 1017.9 |
| 20260508124006 | 57 | 66 | 3.0 | 5.0 | 0.00 | 0.01 | 0.00 | 81 | 1017.8 |
| 20260508123505 | 57 | 100 | 3.0 | 5.0 | 0.00 | 0.01 | 0.00 | 81 | 1017.6 |
| 20260508123017 | 57 | 60 | 2.0 | 6.0 | 0.00 | 0.01 | 0.00 | 81 | 1017.6 |
| 20260508122505 | 56 | 70 | 3.0 | 6.0 | 0.00 | 0.01 | 0.00 | 82 | 1017.6 |
| 20260508122004 | 56 | 81 | 3.0 | 6.0 | 0.00 | 0.01 | 0.00 | 82 | 1017.5 |
| 20260508121520 | 56 | 63 | 4.0 | 6.0 | 0.00 | 0.01 | 0.00 | 81 | 1017.4 |
| 20260508121004 | 56 | 55 | 3.0 | 6.0 | 0.00 | 0.01 | 0.00 | 82 | 1017.3 |
| 20260508120503 | 56 | 101 | 4.0 | 6.0 | 0.00 | 0.01 | 0.00 | 82 | 1017.3 |
| 20260508120019 | 56 | 56 | 2.0 | 5.0 | 0.00 | 0.01 | 0.00 | 82 | 1017.2 |
| 20260508115505 | 56 | 66 | 3.0 | 5.0 | 0.00 | 0.01 | 0.00 | 82 | 1017.2 |
| 20260508115004 | 56 | 71 | 2.0 | 5.0 | 0.00 | 0.01 | 0.00 | 81 | 1017.1 |
| 20260508114509 | 56 | 78 | 3.0 | 5.0 | 0.00 | 0.01 | 0.00 | 81 | 1017.0 |
| 20260508114005 | 56 | 80 | 2.0 | 9.0 | 0.00 | 0.01 | 0.00 | 81 | 1016.9 |
| 20260508113505 | 55 | 78 | 3.0 | 9.0 | 0.00 | 0.01 | 0.00 | 80 | 1016.7 |